Weather Roundup
Issued by NWS

Home | Current Version | Previous Version | Text Only | Print | Product List | Glossary On
Versions: 1 2 3 4 5 6 7 8 9 10 11 12 13 14 15 16 17 18 19 20 21 22 23 24 25 26 27 28 29 30 31 32 33 34 35 36 37 38 39 40 41 42 43 44 45 46 47 48 49 50
000
NZUS93 KARX 202210
HRRWXR

CURRENT HOURLY OBSERVATIONS ACROSS
MUCH OF THE UPPER MISSISSIPPI VALLEY
NATIONAL WEATHER SERVICE LA CROSSE WI
400 PM CST SAT DEC 20 2014


...SOUTHEAST MINNESOTA...


CITY           SKY/WX    TMP DP  RH WIND       PRES   REMARKS
ROCHESTER      CLOUDY    30  27  88 S10       30.13R WCI  21
ROCHESTER/MAYO CLOUDY    31  29  94 SE7       30.13R WCI  24
WINONA         CLOUDY    34  30  86 SE5       30.17S FOG     WCI  30
AUSTIN         CLOUDY    30  28  93 S6        30.12R FOG     WCI  24
ALBERT LEA     CLOUDY    30  28  93 S7        30.11R WCI  23
DODGE CENTER   CLOUDY    30  28  93 S13       30.11R WCI  20
PRESTON        CLOUDY    30  28  95 SE6       30.13S FOG     WCI  24
OWATONNA       CLOUDY    30  27  86 S5        30.11S WCI  25
FARIBAULT      CLOUDY    30  27  86 S9        30.11F WCI  22
$$

...ELSEWHERE IN MINNESOTA...


CITY           SKY/WX    TMP DP  RH WIND       PRES   REMARKS
MINNEAPOLIS    CLOUDY    32  27  81 S8        30.12S WCI  25
INTNL FALLS    CLOUDY    30  28  92 CALM      30.00S FOG
DULUTH         CLOUDY    30  26  85 S8        30.06S FOG     WCI  22
RED WING       CLOUDY    34  28  80 SE6       30.14S FOG     WCI  29
REDWOOD FALLS  CLOUDY    32  28  85 S13       30.06R WCI  22
MANKATO        CLOUDY    30  25  80 S6        30.10S WCI  24
WORTHINGTON    CLOUDY    30  28  93 S9        30.05R WCI  22
FAIRMONT       CLOUDY    30  27  86 S10       30.08S WCI  21
$$

...SOUTHWEST WISCONSIN...


CITY           SKY/WX    TMP DP  RH WIND       PRES   REMARKS
LA CROSSE      CLOUDY    33  28  81 S5        30.18S WCI  29
PRAIRIE DU CHI CLOUDY    32  27  83 E6        30.19R HAZE    WCI  26
BOSCOBEL       CLOUDY    33  26  75 CALM      30.20S
LONE ROCK      CLOUDY    35  26  69 SE5       30.21R WCI  31
PLATTEVILLE    CLOUDY    31  27  84 CALM      30.19S
FORT MC COY    CLOUDY    31  27  83 S6        30.19S HAZE    WCI  25
CAMP DOUGLAS   CLOUDY    30  30 100 SE8       30.18S WCI  22
VIROQUA        CLOUDY    29  29 100 SE7       30.16S WCI  22
WIS DELLS      CLOUDY    29  26  86 SE5       30.19S WCI  24
$$

...ELSEWHERE IN WISCONSIN...


CITY           SKY/WX    TMP DP  RH WIND       PRES   REMARKS
MILWAUKEE      CLOUDY    31  22  69 SW5       30.24R WCI  26
MADISON        FLURRIES  30  26  85 S7        30.21S WCI  23
GREEN BAY      CLOUDY    30  24  78 SW3       30.23S
EAU CLAIRE     CLOUDY    32  25  75 SE7       30.15S WCI  26
BLACK RVR FLS  CLOUDY    32  27  80 SE5       30.18R HAZE    WCI  27
MEDFORD        CLOUDY    28  25  89 SE5       30.14S FOG     WCI  23
WAUSAU         CLOUDY    30  24  78 SE7       30.16S WCI  23
WIS RAPIDS     CLOUDY    31  24  75 SE6       30.20S WCI  25
MARSHFIELD     CLOUDY    30  25  81 SE7       30.16S HAZE    WCI  23
RICE LAKE      CLOUDY    31  27  82 SE9       30.15R WCI  23
$$

...NORTHEAST IOWA...


CITY           SKY/WX    TMP DP  RH WIND       PRES   REMARKS
DECORAH        CLOUDY    30  30 100 SE6       30.15R FOG     WCI  24
MASON CITY     CLOUDY    30  27  88 SE6       30.13R WCI  24
CHARLES CITY   CLOUDY    32  32 100 S8        30.14S FOG     WCI  25
OELWEIN        CLOUDY    32  30  93 S7        30.16R FOG     WCI  26
$$

...ELSEWHERE IN IOWA...


CITY           SKY/WX    TMP DP  RH WIND       PRES   REMARKS
DES MOINES     CLOUDY    36  33  89 S7        30.13R FOG     WCI  30
IOWA CITY      CLOUDY    33  31  92 SE6       30.20R FOG     WCI  28
FORT DODGE     CLOUDY    32  28  86 SE6       30.11S WCI  26
$$

...NORTHERN ILLINOIS...


CITY           SKY/WX    TMP DP  RH WIND       PRES   REMARKS
CHICAGO-OHARE  FLURRIES  32  23  69 S7        30.24R WCI  26
CHICAGO-MIDWAY CLOUDY    34  25  69 S5        30.25S WCI  30
MOLINE         CLOUDY    34  27  75 SE6       30.20S HAZE    WCI  29
ROCKFORD       CLOUDY    31  24  75 S5        30.25R WCI  26
PEORIA         CLOUDY    36  26  67 SE6       30.23R WCI  31
$$

NOTE: "FAIR" INDICATES FEW OR NO CLOUDS BELOW 12,000 FEET WITH NO
SIGNIFICANT WEATHER AND/OR OBSTRUCTIONS TO VISIBILITY. WIND
SPEEDS ARE IN MILES-PER-HOUR.



USA.gov is the U.S. government's official web portal to all federal, state and local government web resources and services.